{"data":{"norad_id":65694,"intl_designator":"2025-212U","name":"STARLINK-35204","alt_names":[],"object_type":"PAYLOAD","status":"ACTIVE","operator":null,"country":"US","launch_date":"2025-09-21","launch_site_code":"AFETR","launch_vehicle":null,"mission":null,"orbit_class":"UNKNOWN","rcs_meters":null,"size_class":null,"mass_kg":null,"dimensions":null,"purposes":["comms"],"wikipedia_slug":null,"has_3d_model":false,"image_url":null,"decayed_at":null,"tle_current":{"epoch":"2026-09-20T07:10:13.148256Z","epoch_age_seconds":126183,"freshness":"FRESH","line1":"1 65694U 25212U   26263.29876329  .00015252  00000+0  46146-3 0  9995","line2":"2 65694  53.1583 158.5770 0001945  39.6962 320.4183 15.34410440 57092","mean_motion":15.3441044,"eccentricity":0.0001945,"inclination_deg":53.1583,"raan_deg":158.577,"arg_perigee_deg":39.6962,"mean_anomaly_deg":320.4183,"bstar":0.00046146,"rev_number":5709,"period_min":93.847119549056,"perigee_km":461.34167311147,"apogee_km":464.00274789436,"semimajor_km":6840.8092105029,"source":"CELESTRAK","updated_at":"2026-09-21T09:00:35.688805Z"}}}